Temp
33 34 35 37 38 38 38 38 40 41 41 40 40 40 40 41 41 41 42 42 42 42 42 43 43 42 42 41 41 41 41 42 42 44 45 46 47 48 48 48 48 48 48 48 47 48 48 49 50 50 51 51 51 51 51 50 49 49 50 51 51 50 50 49 49 49 49 49 49
33 33 35 36 37 37 37 38 39 39 40 40 40 40 40 41 41 41 41 42 42 42 42 43 42 42 41 41 41 41 41 41 41 42 43 45 46 47 46 47 47 47 47 47 47 47 47 48 49 49 50 50 50 51 52 52 50 50 50 50 50 50 50 50 50 50 49 49 48
32 33 33 34 34 35 36 36 37 37 38 39 40 40 40 41 41 41 41 41 41 42 42 42 42 42 42 41 41 41 41 41 41 41 42 43 45 46 46 45 45 45 46 46 46 46 46 47 48 49 49 50 50 50 50 51 51 51 51 50 50 50 50 50 50 50 50 49 48
31 32 32 33 33 33 34 36 36 36 37 39 39 40 40 40 41 41 41 41 40 41 41 42 42 42 42 42 42 41 41 42 42 42 42 43 45 47 48 47 46 46 45 44 44 44 45 47 48 48 49 49 49 50 50 50 51 51 51 51 50 50 50 50 50 50 50 49 48
31 31 32 32 32 33 34 35 35 36 37 38 39 39 40 40 40 40 40 40 40 40 41 41 42 42 43 43 42 42 42 42 43 43 43 44 45 45 46 46 46 46 45 45 44 44 45 46 47 48 49 49 49 50 50 50 50 51 50 50 50 50 49 49 49 49 50 50 48
31 31 31 32 32 33 34 34 35 35 36 38 38 38 39 40 40 40 40 40 40 40 40 41 42 42 42 43 43 42 42 42 43 44 44 44 45 45 45 45 45 45 44 45 44 44 43 43 46 47 48 49 49 50 50 49 50 50 49 49 49 49 48 48 49 49 49 50 48
30 31 31 31 32 32 33 34 34 35 36 37 37 37 38 39 39 39 39 39 40 40 40 41 41 41 41 42 42 42 43 43 43 44 44 44 44 45 45 45 44 42 42 43 43 42 42 42 44 46 48 49 49 50 50 49 49 48 47 47 48 48 47 46 48 48 48 49 48
31 31 31 31 32 32 32 33 34 34 35 36 37 37 37 38 39 39 39 39 39 39 40 40 39 40 40 41 42 42 42 43 43 43 44 43 43 42 42 42 42 42 41 41 41 40 41 42 44 45 47 48 48 49 50 50 49 48 47 47 47 47 45 44 47 48 48 48 48
31 31 31 31 32 32 32 33 33 34 34 35 35 36 38 39 39 39 39 39 40 39 39 39 39 39 39 40 41 42 42 42 43 43 42 42 41 40 40 39 39 39 39 40 40 40 41 43 44 45 46 47 48 49 50 50 49 48 47 47 47 46 46 46 47 47 47 48 48
30 31 31 31 31 32 32 32 33 33 34 34 35 36 38 39 39 39 39 39 40 39 39 38 38 38 38 39 40 41 42 42 42 42 42 41 40 40 39 39 39 39 40 40 40 40 41 42 43 44 46 46 47 48 49 50 49 49 48 47 47 47 47 47 46 45 45 47 47
29 30 30 31 31 32 32 32 33 33 34 34 35 36 37 38 38 39 39 39 39 38 38 38 38 38 38 38 39 40 41 41 42 42 42 41 41 40 40 40 41 41 41 42 41 40 41 42 42 44 45 46 46 47 48 49 49 49 48 47 47 47 47 46 45 44 44 47 47
29 30 30 31 31 31 31 31 32 33 33 34 34 35 36 37 38 38 39 39 38 38 38 38 38 38 37 38 38 39 40 40 41 41 42 42 41 40 40 41 41 41 40 40 40 40 40 41 42 43 44 45 46 46 47 48 49 48 48 47 46 46 46 46 44 44 45 48 47
29 30 30 31 31 31 31 31 31 32 32 33 33 34 35 36 37 38 38 38 38 38 38 38 38 38 37 37 38 38 39 39 40 41 41 41 41 40 40 40 40 39 39 38 39 39 39 40 41 42 43 44 45 46 47 48 48 48 47 46 46 45 45 45 44 44 46 47 46
29 29 30 30 30 31 31 31 31 31 31 32 32 33 34 35 36 37 37 37 37 37 38 38 38 38 38 38 37 37 38 39 40 40 41 41 41 40 39 39 38 38 38 38 38 38 39 39 40 41 42 43 44 45 46 47 48 48 47 47 46 45 44 45 44 44 45 46 46
29 29 30 30 30 31 31 31 31 31 31 31 32 32 33 34 35 36 37 36 36 37 37 37 37 38 38 38 38 37 38 38 39 40 41 41 41 40 39 39 38 38 38 38 38 38 39 39 40 41 42 43 44 45 46 47 48 48 47 47 47 46 45 45 44 45 45 46 46
29 29 30 30 30 30 31 31 31 31 31 31 31 32 32 33 34 35 36 36 36 36 37 37 37 37 38 38 38 38 37 38 39 40 40 41 41 40 40 39 39 40 40 40 40 40 40 41 41 42 43 44 44 45 45 46 47 48 48 47 47 46 46 45 44 44 45 46 45
28 29 29 29 30 30 30 31 31 31 31 30 30 31 32 32 33 34 35 35 35 35 36 36 37 37 37 37 38 38 37 37 38 39 40 41 41 41 41 41 41 41 41 41 41 41 42 42 43 43 44 44 45 45 45 46 47 47 47 47 47 47 46 45 44 44 45 46 45
28 28 29 29 29 30 30 30 31 30 30 30 30 31 31 32 32 33 34 35 35 35 35 36 36 37 37 37 37 37 37 37 37 38 39 40 41 42 42 42 42 42 41 41 41 41 42 42 43 44 44 45 45 45 45 46 47 47 47 47 47 46 46 45 45 44 45 46 45
27 28 28 29 30 30 30 31 30 30 29 29 30 30 31 31 31 32 32 33 34 35 35 35 36 36 36 36 36 37 37 37 37 37 38 39 41 42 42 42 42 42 41 41 41 41 42 42 43 44 44 44 45 45 45 46 47 47 47 47 47 46 46 46 45 45 45 45 45
27 27 28 29 30 30 30 30 29 29 29 29 29 30 30 30 31 31 31 32 34 35 35 35 35 36 36 36 36 36 36 36 36 37 38 39 40 41 42 42 42 42 42 42 42 42 42 41 42 43 43 44 44 45 45 45 46 47 47 47 46 46 46 46 46 45 45 45 45
27 27 28 29 30 30 29 29 28 28 28 28 29 29 29 30 30 31 31 32 34 34 35 35 35 35 36 36 36 36 36 37 37 37 38 39 40 41 42 43 42 42 42 42 42 42 42 42 42 42 43 44 44 44 44 45 46 47 47 47 46 46 46 46 46 45 45 45 44
27 27 28 30 30 29 29 28 27 27 28 29 29 29 29 29 30 30 31 32 33 34 34 34 34 35 35 36 36 36 36 37 37 37 38 39 41 42 42 43 42 42 41 41 41 42 42 43 43 43 44 44 44 44 44 45 46 46 47 46 46 46 46 46 46 45 44 44 43
28 28 29 30 30 30 29 28 27 27 28 29 29 29 29 29 29 30 31 31 32 33 33 34 35 35 35 36 36 36 37 37 37 38 38 39 40 42 42 42 42 41 41 40 40 41 41 42 43 43 44 44 44 44 45 45 46 46 46 46 46 46 46 46 45 45 44 43 43
28 29 30 31 29 28 27 26 27 27 28 29 29 29 29 29 30 30 30 30 31 31 33 34 35 35 35 36 36 37 37 37 37 37 38 39 40 41 42 42 42 41 41 41 41 41 41 41 42 43 43 44 44 44 45 45 46 46 46 46 45 45 45 45 45 44 43 42 44
29 29 29 30 28 26 26 26 27 28 28 29 29 29 29 30 30 30 30 30 30 31 32 33 34 35 36 36 36 37 37 37 36 36 37 37 39 40 41 42 42 42 42 42 43 44 45 44 43 43 43 44 44 44 44 45 46 46 46 46 46 45 45 44 44 43 42 42 44
29 28 28 28 26 26 26 27 27 28 28 28 29 29 29 29 30 30 30 30 30 31 31 32 33 34 35 36 36 36 37 37 36 36 36 37 38 39 40 41 42 42 42 43 45 45 46 46 46 45 44 43 43 43 44 45 46 47 47 46 46 45 44 44 43 42 42 42 44
29 28 27 27 26 26 27 28 28 28 28 28 28 29 29 29 30 30 30 30 30 31 32 32 33 34 35 35 35 36 36 36 36 36 36 36 37 38 39 40 41 42 43 44 45 46 46 47 47 47 46 44 44 43 43 44 46 46 46 46 46 45 44 44 42 42 41 43 44
29 28 28 27 27 27 28 28 28 28 28 28 28 29 29 29 29 29 29 29 30 31 31 32 33 34 34 34 34 35 35 36 36 36 36 36 37 38 39 40 41 42 43 45 46 46 47 47 47 48 48 47 45 44 44 44 46 46 46 46 45 44 44 43 43 42 41 42 43
28 29 30 28 28 28 28 28 28 27 27 28 28 29 29 29 29 29 29 29 29 29 30 30 32 33 33 33 34 34 35 36 36 36 36 36 37 37 38 39 41 42 44 45 46 46 47 47 48 48 48 48 46 45 44 44 46 46 46 45 45 44 44 43 43 42 42 42 43
29 30 31 30 30 29 28 28 28 27 28 28 28 28 28 28 28 28 28 28 28 29 30 30 31 31 32 33 33 34 35 35 36 36 36 36 36 37 38 40 40 42 43 45 46 46 47 47 48 48 48 48 47 45 44 44 45 46 46 45 45 44 43 43 43 42 42 42 43
30 31 32 32 31 29 28 28 28 28 28 28 28 28 27 27 27 27 27 27 28 29 30 30 30 30 31 32 33 34 34 35 36 36 36 36 36 37 38 39 40 41 43 45 45 46 46 47 47 48 48 48 47 46 45 44 45 45 45 45 45 44 44 44 43 42 42 42 42
32 32 32 32 31 30 29 29 28 28 27 27 27 27 27 27 27 27 27 28 28 29 29 29 29 29 30 31 32 33 34 35 35 36 36 36 36 36 37 38 39 41 43 45 45 46 46 47 47 48 48 48 47 46 46 45 45 46 45 45 45 44 44 44 44 43 42 42 43
32 31 31 31 31 31 31 29 28 27 27 27 27 27 27 27 27 27 28 28 28 28 28 28 28 29 30 31 32 33 34 35 36 36 37 37 36 36 36 37 39 41 43 45 45 46 46 47 47 47 48 48 47 46 46 46 46 46 45 45 45 44 44 43 43 43 43 43 43
29 29 30 31 31 31 31 30 28 27 27 26 27 27 27 27 27 27 27 28 28 28 28 28 29 30 31 32 32 33 34 35 36 36 36 36 36 36 36 37 38 41 43 44 45 46 46 47 47 47 48 48 47 46 46 46 46 45 45 44 44 44 44 44 44 43 43 43 43
29 29 30 31 31 31 30 29 28 27 26 26 26 26 27 26 26 26 27 29 29 29 28 28 29 30 31 32 33 33 34 35 35 36 36 36 36 35 36 36 38 40 42 44 45 45 46 46 47 47 47 47 46 45 45 45 45 44 44 44 43 43 43 44 44 43 43 43 43
30 29 30 30 30 30 30 29 28 27 26 26 26 26 26 26 26 26 27 29 29 28 28 28 29 30 31 32 33 33 34 34 34 35 36 36 36 35 35 36 37 39 41 43 44 45 46 46 46 47 47 46 45 45 45 44 44 44 43 43 43 43 43 43 43 43 43 43 44
30 29 29 30 30 30 29 28 27 26 25 25 25 25 25 25 26 26 27 29 28 28 28 29 30 31 31 32 32 32 33 33 34 34 35 36 36 35 35 35 36 38 40 42 43 45 45 46 46 47 46 45 44 44 44 44 44 43 43 42 42 42 42 43 42 42 43 43 44
30 30 30 30 30 29 29 28 26 25 25 25 25 25 25 25 26 26 28 30 29 29 30 30 31 31 31 31 32 32 33 33 34 34 35 36 36 36 35 35 36 37 39 41 43 44 45 46 46 46 46 44 44 44 44 44 44 43 43 42 42 42 42 42 42 42 43 44 45
31 31 30 30 29 29 28 27 26 25 24 24 24 25 25 25 26 27 29 31 30 30 30 30 30 31 31 32 32 32 32 33 34 34 35 35 36 36 36 35 36 37 39 41 42 44 45 45 46 46 46 45 44 44 44 44 43 43 42 42 42 42 41 42 42 42 42 43 46
31 31 30 30 29 29 28 26 25 25 24 24 24 24 25 25 26 28 30 31 31 31 30 30 30 30 31 32 32 31 32 32 33 34 35 35 36 37 37 36 36 37 38 40 42 43 44 45 46 46 46 45 44 44 44 43 43 42 42 42 42 42 42 41 41 42 42 43 46
31 30 30 30 29 28 27 26 25 25 24 24 24 24 25 27 28 29 30 30 30 30 30 30 30 30 31 32 31 31 31 31 32 33 34 35 36 37 37 36 36 36 37 39 41 42 44 45 45 46 46 45 44 44 43 43 42 42 41 41 41 42 42 41 41 41 42 42 44
MSLP
1020.87 1020.71 1020.59 1020.35 1020.15 1019.95 1019.75 1019.55 1019.31 1019.11 1018.95 1018.75 1018.59 1018.39 1018.19 1017.99 1017.79 1017.59 1017.35 1017.19 1017.03 1016.87 1016.63 1016.47 1016.31 1016.15 1015.99 1015.87 1015.75 1015.63 1015.47 1015.35 1015.15 1014.95 1014.71 1014.51 1014.27 1014.11 1013.99 1013.91 1013.91 1013.91 1013.87 1013.83 1013.75 1013.71 1013.67 1013.63 1013.55 1013.47 1013.39 1013.31 1013.23 1013.11 1012.99 1012.95 1012.95 1012.87 1012.83 1012.79 1012.83 1012.87 1012.91 1012.95 1012.99 1012.99 1013.03 1013.07 1013.07
1020.91 1020.75 1020.59 1020.43 1020.19 1019.99 1019.83 1019.59 1019.39 1019.15 1018.99 1018.83 1018.63 1018.43 1018.27 1018.07 1017.87 1017.63 1017.43 1017.31 1017.15 1016.95 1016.75 1016.51 1016.31 1016.15 1015.99 1015.87 1015.71 1015.59 1015.43 1015.31 1015.15 1014.99 1014.75 1014.59 1014.35 1014.15 1013.99 1013.91 1013.87 1013.87 1013.83 1013.79 1013.75 1013.71 1013.71 1013.63 1013.59 1013.47 1013.39 1013.31 1013.23 1013.11 1012.99 1012.83 1012.83 1012.83 1012.75 1012.71 1012.71 1012.79 1012.87 1012.91 1012.87 1012.95 1012.99 1012.99 1012.99
1020.95 1020.79 1020.59 1020.43 1020.27 1020.11 1019.87 1019.63 1019.43 1019.23 1019.03 1018.87 1018.67 1018.47 1018.27 1018.11 1017.91 1017.71 1017.59 1017.39 1017.23 1017.03 1016.83 1016.55 1016.35 1016.15 1015.99 1015.83 1015.63 1015.51 1015.43 1015.31 1015.11 1014.95 1014.79 1014.59 1014.35 1014.15 1013.99 1013.95 1013.87 1013.87 1013.83 1013.79 1013.79 1013.75 1013.71 1013.71 1013.67 1013.59 1013.43 1013.35 1013.27 1013.15 1012.99 1012.87 1012.79 1012.71 1012.71 1012.71 1012.71 1012.71 1012.83 1012.87 1012.91 1012.95 1012.99 1012.99 1012.99
1020.99 1020.83 1020.67 1020.47 1020.27 1020.15 1019.99 1019.71 1019.51 1019.31 1019.03 1018.87 1018.63 1018.43 1018.27 1018.15 1017.95 1017.79 1017.59 1017.43 1017.27 1017.07 1016.87 1016.63 1016.43 1016.15 1015.95 1015.79 1015.59 1015.47 1015.35 1015.19 1015.03 1014.87 1014.71 1014.51 1014.31 1014.15 1013.99 1013.91 1013.87 1013.87 1013.87 1013.87 1013.79 1013.75 1013.75 1013.75 1013.71 1013.63 1013.47 1013.35 1013.27 1013.15 1012.99 1012.87 1012.75 1012.67 1012.67 1012.71 1012.67 1012.71 1012.75 1012.87 1012.87 1012.87 1012.91 1012.95 1012.99
1020.95 1020.83 1020.67 1020.51 1020.31 1020.15 1019.95 1019.75 1019.55 1019.31 1019.07 1018.87 1018.63 1018.43 1018.27 1018.11 1017.91 1017.75 1017.59 1017.43 1017.27 1017.07 1016.91 1016.71 1016.47 1016.23 1015.99 1015.79 1015.59 1015.43 1015.31 1015.15 1014.99 1014.79 1014.63 1014.43 1014.27 1014.15 1013.99 1013.95 1013.91 1013.87 1013.87 1013.87 1013.83 1013.79 1013.75 1013.75 1013.71 1013.59 1013.47 1013.31 1013.19 1013.07 1012.99 1012.87 1012.75 1012.71 1012.71 1012.71 1012.71 1012.71 1012.75 1012.87 1012.87 1012.87 1012.87 1012.91 1012.95
1020.95 1020.79 1020.63 1020.47 1020.27 1020.15 1019.95 1019.75 1019.55 1019.31 1019.11 1018.87 1018.63 1018.43 1018.27 1018.11 1017.91 1017.71 1017.59 1017.43 1017.27 1017.15 1016.99 1016.75 1016.51 1016.27 1015.99 1015.83 1015.63 1015.43 1015.27 1015.11 1014.91 1014.75 1014.59 1014.43 1014.27 1014.19 1014.11 1013.99 1013.87 1013.87 1013.87 1013.83 1013.83 1013.79 1013.79 1013.79 1013.71 1013.59 1013.43 1013.31 1013.15 1012.99 1012.91 1012.87 1012.71 1012.71 1012.71 1012.75 1012.75 1012.79 1012.83 1012.87 1012.87 1012.87 1012.87 1012.87 1012.95
1020.95 1020.79 1020.59 1020.43 1020.23 1020.07 1019.87 1019.71 1019.51 1019.31 1019.07 1018.87 1018.63 1018.43 1018.27 1018.07 1017.87 1017.71 1017.59 1017.43 1017.27 1017.11 1016.95 1016.75 1016.59 1016.39 1016.15 1015.87 1015.67 1015.47 1015.27 1015.07 1014.87 1014.71 1014.59 1014.43 1014.31 1014.23 1014.15 1014.07 1013.99 1013.95 1013.91 1013.87 1013.83 1013.79 1013.79 1013.79 1013.71 1013.59 1013.43 1013.31 1013.11 1012.95 1012.83 1012.71 1012.67 1012.67 1012.71 1012.71 1012.71 1012.79 1012.83 1012.87 1012.87 1012.87 1012.87 1012.87 1012.87
1020.91 1020.71 1020.59 1020.43 1020.23 1020.07 1019.87 1019.67 1019.47 1019.27 1019.03 1018.87 1018.67 1018.43 1018.27 1018.07 1017.87 1017.71 1017.55 1017.39 1017.23 1017.11 1016.95 1016.83 1016.67 1016.47 1016.27 1015.99 1015.71 1015.47 1015.31 1015.11 1014.87 1014.71 1014.59 1014.43 1014.35 1014.27 1014.23 1014.19 1014.15 1014.07 1013.99 1013.91 1013.83 1013.79 1013.71 1013.67 1013.59 1013.55 1013.43 1013.31 1013.11 1012.91 1012.75 1012.59 1012.59 1012.59 1012.63 1012.63 1012.67 1012.71 1012.79 1012.87 1012.87 1012.87 1012.87 1012.87 1012.87
1020.83 1020.67 1020.51 1020.31 1020.15 1019.99 1019.83 1019.67 1019.47 1019.31 1019.07 1018.87 1018.71 1018.47 1018.23 1018.03 1017.87 1017.67 1017.51 1017.31 1017.15 1017.03 1016.91 1016.83 1016.67 1016.51 1016.27 1016.03 1015.79 1015.51 1015.27 1015.07 1014.87 1014.71 1014.59 1014.51 1014.39 1014.27 1014.23 1014.19 1014.15 1014.11 1014.03 1013.95 1013.87 1013.79 1013.71 1013.67 1013.59 1013.51 1013.39 1013.27 1013.15 1012.91 1012.71 1012.55 1012.47 1012.47 1012.47 1012.51 1012.59 1012.63 1012.71 1012.79 1012.79 1012.87 1012.87 1012.87 1012.87
1020.79 1020.63 1020.47 1020.27 1020.11 1019.95 1019.79 1019.59 1019.43 1019.27 1019.07 1018.87 1018.67 1018.43 1018.23 1018.03 1017.87 1017.67 1017.51 1017.31 1017.11 1016.99 1016.87 1016.75 1016.63 1016.47 1016.27 1016.03 1015.83 1015.59 1015.31 1015.11 1014.87 1014.71 1014.59 1014.47 1014.39 1014.27 1014.23 1014.15 1014.07 1013.99 1013.95 1013.87 1013.87 1013.83 1013.75 1013.63 1013.55 1013.43 1013.31 1013.19 1013.11 1012.95 1012.75 1012.55 1012.39 1012.35 1012.35 1012.39 1012.43 1012.55 1012.63 1012.71 1012.75 1012.83 1012.87 1012.83 1012.83
1020.75 1020.59 1020.43 1020.23 1020.03 1019.87 1019.71 1019.59 1019.39 1019.19 1019.03 1018.87 1018.63 1018.43 1018.23 1018.03 1017.87 1017.67 1017.47 1017.27 1017.07 1016.95 1016.83 1016.67 1016.59 1016.43 1016.27 1016.03 1015.83 1015.59 1015.35 1015.15 1014.87 1014.71 1014.55 1014.43 1014.31 1014.23 1014.15 1014.03 1013.99 1013.95 1013.87 1013.79 1013.79 1013.75 1013.71 1013.59 1013.51 1013.39 1013.27 1013.15 1013.07 1012.95 1012.75 1012.59 1012.35 1012.23 1012.19 1012.27 1012.35 1012.43 1012.55 1012.59 1012.67 1012.75 1012.79 1012.75 1012.75
1020.71 1020.51 1020.31 1020.15 1019.99 1019.87 1019.71 1019.55 1019.35 1019.19 1019.03 1018.83 1018.63 1018.43 1018.23 1018.03 1017.87 1017.67 1017.43 1017.23 1017.03 1016.87 1016.71 1016.59 1016.51 1016.39 1016.23 1016.03 1015.87 1015.63 1015.39 1015.15 1014.91 1014.71 1014.51 1014.35 1014.23 1014.15 1014.11 1013.99 1013.91 1013.87 1013.83 1013.75 1013.71 1013.71 1013.63 1013.59 1013.47 1013.31 1013.19 1013.11 1012.99 1012.87 1012.71 1012.51 1012.27 1012.15 1012.15 1012.23 1012.31 1012.43 1012.51 1012.59 1012.63 1012.71 1012.71 1012.71 1012.71
1020.59 1020.43 1020.27 1020.07 1019.91 1019.79 1019.67 1019.51 1019.31 1019.15 1018.99 1018.83 1018.63 1018.43 1018.27 1018.07 1017.87 1017.63 1017.43 1017.23 1016.99 1016.83 1016.63 1016.51 1016.43 1016.31 1016.19 1015.99 1015.83 1015.59 1015.39 1015.15 1014.87 1014.63 1014.43 1014.27 1014.19 1014.11 1014.03 1013.95 1013.87 1013.83 1013.79 1013.71 1013.71 1013.63 1013.59 1013.47 1013.39 1013.27 1013.11 1012.99 1012.87 1012.83 1012.67 1012.47 1012.27 1012.15 1012.15 1012.19 1012.27 1012.31 1012.39 1012.47 1012.59 1012.63 1012.67 1012.67 1012.71
1020.55 1020.39 1020.19 1019.99 1019.87 1019.71 1019.59 1019.43 1019.27 1019.11 1018.95 1018.79 1018.63 1018.43 1018.27 1018.07 1017.87 1017.63 1017.43 1017.23 1016.99 1016.79 1016.59 1016.43 1016.31 1016.23 1016.11 1015.99 1015.79 1015.59 1015.35 1015.11 1014.87 1014.59 1014.39 1014.19 1014.07 1013.99 1013.95 1013.87 1013.79 1013.75 1013.71 1013.67 1013.59 1013.55 1013.47 1013.39 1013.31 1013.15 1013.03 1012.91 1012.83 1012.71 1012.59 1012.43 1012.27 1012.15 1012.11 1012.15 1012.15 1012.23 1012.31 1012.43 1012.51 1012.59 1012.59 1012.63 1012.67
1020.43 1020.27 1020.15 1019.99 1019.83 1019.67 1019.51 1019.35 1019.19 1019.03 1018.87 1018.71 1018.59 1018.43 1018.23 1018.07 1017.87 1017.63 1017.43 1017.19 1016.99 1016.79 1016.59 1016.43 1016.23 1016.11 1015.99 1015.87 1015.75 1015.55 1015.31 1015.07 1014.79 1014.55 1014.27 1014.11 1013.99 1013.91 1013.83 1013.75 1013.71 1013.63 1013.59 1013.55 1013.47 1013.43 1013.35 1013.31 1013.15 1013.07 1012.95 1012.83 1012.71 1012.59 1012.51 1012.39 1012.23 1012.11 1012.07 1012.07 1012.11 1012.15 1012.19 1012.31 1012.43 1012.51 1012.55 1012.59 1012.67
1020.35 1020.19 1020.03 1019.91 1019.75 1019.59 1019.43 1019.31 1019.11 1018.99 1018.87 1018.71 1018.55 1018.39 1018.23 1018.03 1017.87 1017.63 1017.43 1017.19 1016.99 1016.75 1016.59 1016.39 1016.15 1015.99 1015.87 1015.71 1015.63 1015.47 1015.27 1014.99 1014.75 1014.47 1014.23 1014.03 1013.87 1013.75 1013.71 1013.59 1013.55 1013.47 1013.43 1013.39 1013.31 1013.27 1013.19 1013.11 1012.99 1012.95 1012.83 1012.63 1012.55 1012.47 1012.43 1012.35 1012.15 1012.03 1011.99 1011.99 1011.99 1012.07 1012.15 1012.27 1012.35 1012.43 1012.47 1012.51 1012.59
1020.27 1020.11 1019.99 1019.83 1019.67 1019.55 1019.39 1019.23 1019.03 1018.91 1018.79 1018.63 1018.51 1018.35 1018.19 1017.99 1017.83 1017.59 1017.43 1017.19 1016.99 1016.75 1016.55 1016.31 1016.15 1015.95 1015.75 1015.59 1015.55 1015.43 1015.19 1014.95 1014.71 1014.47 1014.23 1013.99 1013.75 1013.63 1013.55 1013.47 1013.39 1013.31 1013.31 1013.27 1013.19 1013.15 1013.03 1012.95 1012.83 1012.71 1012.63 1012.51 1012.43 1012.43 1012.39 1012.31 1012.15 1011.99 1011.91 1011.91 1011.95 1012.03 1012.11 1012.19 1012.27 1012.35 1012.43 1012.47 1012.55
1020.19 1020.03 1019.87 1019.75 1019.59 1019.43 1019.31 1019.15 1018.99 1018.87 1018.71 1018.59 1018.43 1018.27 1018.15 1017.99 1017.79 1017.59 1017.39 1017.19 1016.99 1016.71 1016.51 1016.27 1016.07 1015.87 1015.71 1015.59 1015.43 1015.31 1015.15 1014.91 1014.71 1014.47 1014.27 1013.99 1013.75 1013.59 1013.43 1013.31 1013.27 1013.19 1013.15 1013.15 1013.07 1013.03 1012.95 1012.83 1012.71 1012.59 1012.51 1012.43 1012.35 1012.35 1012.31 1012.27 1012.11 1011.99 1011.87 1011.87 1011.91 1011.99 1012.07 1012.15 1012.23 1012.27 1012.35 1012.43 1012.47
1020.15 1019.99 1019.87 1019.71 1019.51 1019.35 1019.15 1019.03 1018.91 1018.79 1018.67 1018.55 1018.39 1018.23 1018.07 1017.95 1017.75 1017.59 1017.39 1017.15 1016.99 1016.71 1016.43 1016.23 1015.99 1015.79 1015.59 1015.47 1015.35 1015.23 1015.07 1014.87 1014.71 1014.43 1014.19 1013.99 1013.71 1013.51 1013.31 1013.23 1013.15 1013.11 1013.07 1012.99 1012.99 1012.91 1012.83 1012.71 1012.67 1012.55 1012.43 1012.31 1012.27 1012.27 1012.23 1012.19 1012.07 1011.91 1011.83 1011.83 1011.87 1011.95 1011.99 1012.11 1012.15 1012.23 1012.27 1012.39 1012.43
1020.03 1019.91 1019.75 1019.59 1019.43 1019.27 1019.11 1018.95 1018.87 1018.71 1018.59 1018.43 1018.31 1018.19 1018.03 1017.87 1017.71 1017.55 1017.35 1017.11 1016.91 1016.67 1016.43 1016.19 1015.95 1015.71 1015.55 1015.35 1015.23 1015.11 1014.99 1014.83 1014.63 1014.39 1014.15 1013.87 1013.63 1013.43 1013.23 1013.11 1012.99 1012.99 1012.95 1012.87 1012.87 1012.79 1012.71 1012.63 1012.59 1012.47 1012.39 1012.27 1012.23 1012.15 1012.15 1012.11 1011.99 1011.87 1011.79 1011.79 1011.83 1011.87 1011.95 1011.99 1012.11 1012.15 1012.27 1012.35 1012.43
1019.95 1019.79 1019.63 1019.43 1019.31 1019.15 1018.99 1018.87 1018.75 1018.67 1018.55 1018.39 1018.27 1018.15 1017.99 1017.79 1017.67 1017.51 1017.31 1017.07 1016.87 1016.63 1016.39 1016.15 1015.91 1015.71 1015.47 1015.27 1015.11 1014.99 1014.87 1014.71 1014.55 1014.31 1014.03 1013.79 1013.55 1013.31 1013.11 1012.99 1012.87 1012.83 1012.79 1012.75 1012.71 1012.67 1012.59 1012.55 1012.47 1012.35 1012.27 1012.19 1012.15 1012.11 1012.07 1012.03 1011.95 1011.87 1011.79 1011.75 1011.79 1011.87 1011.91 1011.99 1012.03 1012.11 1012.19 1012.27 1012.39
1019.79 1019.67 1019.51 1019.31 1019.15 1019.03 1018.87 1018.75 1018.67 1018.59 1018.43 1018.27 1018.15 1017.99 1017.87 1017.71 1017.59 1017.43 1017.23 1016.99 1016.79 1016.59 1016.35 1016.15 1015.87 1015.67 1015.43 1015.19 1015.03 1014.87 1014.71 1014.59 1014.43 1014.23 1013.99 1013.71 1013.43 1013.19 1012.99 1012.87 1012.79 1012.71 1012.67 1012.67 1012.63 1012.59 1012.51 1012.43 1012.35 1012.27 1012.15 1012.07 1011.99 1011.99 1011.99 1011.99 1011.87 1011.79 1011.71 1011.71 1011.75 1011.83 1011.87 1011.95 1011.99 1012.07 1012.15 1012.23 1012.27
1019.63 1019.51 1019.35 1019.23 1019.03 1018.87 1018.75 1018.67 1018.59 1018.47 1018.31 1018.15 1018.03 1017.91 1017.79 1017.67 1017.47 1017.31 1017.15 1016.95 1016.75 1016.55 1016.31 1016.07 1015.83 1015.59 1015.35 1015.15 1014.99 1014.79 1014.63 1014.47 1014.27 1014.15 1013.95 1013.67 1013.39 1013.15 1012.91 1012.75 1012.67 1012.59 1012.59 1012.55 1012.55 1012.51 1012.43 1012.35 1012.27 1012.19 1012.07 1011.95 1011.87 1011.87 1011.87 1011.87 1011.83 1011.71 1011.67 1011.71 1011.71 1011.83 1011.87 1011.95 1011.99 1012.03 1012.15 1012.19 1012.23
1019.51 1019.39 1019.23 1019.07 1018.91 1018.83 1018.71 1018.63 1018.51 1018.35 1018.23 1018.07 1017.95 1017.83 1017.71 1017.55 1017.35 1017.15 1016.99 1016.87 1016.67 1016.47 1016.27 1015.99 1015.75 1015.55 1015.31 1015.07 1014.87 1014.71 1014.51 1014.35 1014.23 1014.03 1013.87 1013.67 1013.39 1013.11 1012.87 1012.71 1012.59 1012.55 1012.47 1012.43 1012.43 1012.39 1012.31 1012.27 1012.19 1012.15 1011.99 1011.87 1011.83 1011.75 1011.75 1011.75 1011.71 1011.67 1011.59 1011.67 1011.71 1011.79 1011.87 1011.95 1011.99 1012.03 1012.07 1012.15 1012.19
1019.39 1019.27 1019.15 1018.99 1018.87 1018.75 1018.67 1018.55 1018.43 1018.27 1018.15 1017.99 1017.87 1017.71 1017.59 1017.39 1017.23 1017.07 1016.87 1016.71 1016.55 1016.35 1016.15 1015.95 1015.71 1015.47 1015.23 1014.99 1014.79 1014.59 1014.43 1014.31 1014.15 1013.99 1013.83 1013.59 1013.35 1013.15 1012.87 1012.71 1012.51 1012.43 1012.39 1012.31 1012.23 1012.15 1012.07 1011.99 1011.99 1011.99 1011.91 1011.79 1011.71 1011.71 1011.71 1011.71 1011.63 1011.59 1011.55 1011.59 1011.67 1011.75 1011.87 1011.95 1011.99 1011.99 1012.03 1012.11 1012.15
1019.31 1019.19 1019.03 1018.91 1018.83 1018.71 1018.59 1018.43 1018.31 1018.15 1018.03 1017.91 1017.79 1017.63 1017.43 1017.31 1017.15 1016.99 1016.79 1016.63 1016.43 1016.27 1016.07 1015.87 1015.63 1015.39 1015.15 1014.91 1014.71 1014.55 1014.39 1014.23 1014.11 1013.95 1013.75 1013.59 1013.31 1013.11 1012.87 1012.67 1012.47 1012.35 1012.27 1012.15 1012.03 1011.95 1011.87 1011.79 1011.75 1011.71 1011.71 1011.67 1011.63 1011.63 1011.59 1011.59 1011.55 1011.47 1011.47 1011.51 1011.59 1011.71 1011.79 1011.91 1011.95 1011.99 1012.03 1012.07 1012.15
1019.19 1019.11 1018.99 1018.83 1018.75 1018.63 1018.47 1018.35 1018.19 1018.07 1017.95 1017.83 1017.67 1017.51 1017.35 1017.19 1017.03 1016.87 1016.71 1016.55 1016.35 1016.15 1015.99 1015.79 1015.59 1015.35 1015.11 1014.91 1014.71 1014.51 1014.31 1014.15 1013.99 1013.87 1013.71 1013.55 1013.31 1013.07 1012.83 1012.63 1012.43 1012.27 1012.15 1012.03 1011.87 1011.79 1011.71 1011.63 1011.55 1011.51 1011.47 1011.47 1011.47 1011.51 1011.51 1011.47 1011.43 1011.39 1011.39 1011.47 1011.51 1011.59 1011.71 1011.87 1011.91 1011.99 1012.03 1012.07 1012.15
1019.15 1018.99 1018.87 1018.75 1018.63 1018.51 1018.35 1018.23 1018.11 1017.99 1017.87 1017.75 1017.59 1017.43 1017.27 1017.15 1016.99 1016.79 1016.63 1016.47 1016.27 1016.11 1015.91 1015.71 1015.51 1015.31 1015.07 1014.87 1014.67 1014.43 1014.27 1014.07 1013.91 1013.75 1013.59 1013.43 1013.27 1013.03 1012.79 1012.59 1012.39 1012.19 1011.99 1011.87 1011.75 1011.67 1011.59 1011.47 1011.39 1011.31 1011.31 1011.31 1011.35 1011.39 1011.39 1011.39 1011.35 1011.31 1011.35 1011.43 1011.47 1011.59 1011.71 1011.75 1011.83 1011.91 1011.99 1012.03 1012.11
1019.07 1018.91 1018.75 1018.67 1018.55 1018.43 1018.27 1018.15 1018.03 1017.91 1017.75 1017.67 1017.51 1017.35 1017.19 1017.07 1016.87 1016.71 1016.55 1016.39 1016.19 1016.03 1015.87 1015.71 1015.47 1015.27 1015.03 1014.87 1014.63 1014.43 1014.19 1013.99 1013.83 1013.67 1013.51 1013.35 1013.19 1012.99 1012.75 1012.55 1012.35 1012.15 1011.99 1011.83 1011.67 1011.55 1011.43 1011.39 1011.31 1011.19 1011.15 1011.19 1011.27 1011.27 1011.27 1011.31 1011.27 1011.27 1011.31 1011.39 1011.43 1011.55 1011.63 1011.71 1011.71 1011.83 1011.91 1011.99 1012.11
1018.99 1018.83 1018.67 1018.59 1018.43 1018.31 1018.19 1018.11 1017.95 1017.83 1017.71 1017.59 1017.43 1017.31 1017.15 1016.99 1016.79 1016.59 1016.43 1016.27 1016.11 1015.99 1015.83 1015.67 1015.47 1015.27 1015.03 1014.87 1014.59 1014.39 1014.15 1013.95 1013.71 1013.59 1013.43 1013.31 1013.11 1012.91 1012.71 1012.51 1012.27 1012.11 1011.87 1011.71 1011.59 1011.43 1011.39 1011.31 1011.15 1011.07 1011.03 1011.07 1011.11 1011.15 1011.15 1011.15 1011.15 1011.19 1011.23 1011.31 1011.43 1011.51 1011.59 1011.59 1011.67 1011.79 1011.91 1011.99 1012.11
1018.87 1018.75 1018.59 1018.47 1018.35 1018.23 1018.11 1017.99 1017.87 1017.71 1017.59 1017.51 1017.35 1017.23 1017.07 1016.91 1016.71 1016.55 1016.39 1016.23 1016.03 1015.87 1015.71 1015.59 1015.43 1015.23 1014.99 1014.75 1014.55 1014.27 1014.07 1013.83 1013.63 1013.47 1013.31 1013.15 1012.99 1012.83 1012.67 1012.51 1012.27 1012.07 1011.83 1011.67 1011.51 1011.39 1011.31 1011.23 1011.15 1010.99 1010.95 1010.91 1010.95 1010.99 1011.03 1011.03 1011.11 1011.15 1011.15 1011.23 1011.31 1011.43 1011.51 1011.51 1011.59 1011.71 1011.87 1011.99 1012.07
1018.79 1018.67 1018.55 1018.43 1018.27 1018.11 1017.99 1017.87 1017.75 1017.63 1017.51 1017.43 1017.31 1017.15 1016.99 1016.83 1016.63 1016.47 1016.31 1016.15 1015.95 1015.79 1015.63 1015.47 1015.31 1015.11 1014.87 1014.63 1014.43 1014.23 1013.99 1013.75 1013.55 1013.39 1013.23 1013.07 1012.91 1012.75 1012.63 1012.43 1012.27 1011.99 1011.79 1011.59 1011.43 1011.27 1011.19 1011.15 1011.07 1010.95 1010.87 1010.83 1010.87 1010.87 1010.87 1010.91 1010.99 1011.03 1011.11 1011.19 1011.31 1011.43 1011.47 1011.43 1011.51 1011.63 1011.79 1011.87 1011.99
1018.71 1018.59 1018.47 1018.35 1018.19 1017.99 1017.87 1017.71 1017.63 1017.55 1017.43 1017.31 1017.23 1017.07 1016.91 1016.71 1016.51 1016.31 1016.19 1016.03 1015.87 1015.71 1015.59 1015.39 1015.23 1014.99 1014.79 1014.55 1014.31 1014.11 1013.87 1013.67 1013.43 1013.27 1013.11 1012.99 1012.87 1012.71 1012.59 1012.39 1012.19 1011.95 1011.71 1011.43 1011.31 1011.15 1011.11 1011.03 1010.99 1010.87 1010.79 1010.71 1010.79 1010.83 1010.83 1010.83 1010.87 1010.95 1011.03 1011.15 1011.23 1011.35 1011.43 1011.43 1011.47 1011.59 1011.71 1011.83 1011.91
1018.67 1018.59 1018.43 1018.27 1018.11 1017.91 1017.75 1017.63 1017.55 1017.43 1017.35 1017.27 1017.11 1016.99 1016.83 1016.63 1016.43 1016.27 1016.07 1015.91 1015.75 1015.59 1015.43 1015.31 1015.15 1014.95 1014.71 1014.47 1014.27 1013.99 1013.79 1013.55 1013.39 1013.19 1013.03 1012.91 1012.79 1012.67 1012.47 1012.31 1012.15 1011.87 1011.63 1011.39 1011.19 1011.07 1010.99 1010.95 1010.87 1010.83 1010.71 1010.67 1010.71 1010.79 1010.79 1010.71 1010.75 1010.87 1010.95 1011.07 1011.19 1011.31 1011.35 1011.43 1011.47 1011.59 1011.71 1011.83 1011.87
1018.59 1018.47 1018.31 1018.15 1017.99 1017.83 1017.71 1017.59 1017.43 1017.39 1017.31 1017.15 1016.99 1016.87 1016.71 1016.59 1016.43 1016.23 1015.99 1015.83 1015.63 1015.47 1015.31 1015.15 1014.99 1014.83 1014.59 1014.39 1014.15 1013.91 1013.71 1013.51 1013.31 1013.15 1012.99 1012.83 1012.71 1012.55 1012.39 1012.23 1012.03 1011.87 1011.63 1011.35 1011.15 1010.99 1010.87 1010.83 1010.75 1010.71 1010.67 1010.59 1010.67 1010.71 1010.75 1010.71 1010.71 1010.75 1010.87 1010.99 1011.15 1011.27 1011.31 1011.43 1011.51 1011.59 1011.71 1011.83 1011.87
1018.51 1018.43 1018.27 1018.07 1017.87 1017.71 1017.59 1017.47 1017.39 1017.31 1017.19 1017.07 1016.95 1016.75 1016.59 1016.43 1016.27 1016.15 1015.95 1015.71 1015.55 1015.31 1015.15 1014.99 1014.83 1014.59 1014.43 1014.19 1014.03 1013.87 1013.67 1013.47 1013.31 1013.11 1012.91 1012.75 1012.59 1012.43 1012.27 1012.15 1011.95 1011.75 1011.59 1011.31 1011.07 1010.91 1010.79 1010.71 1010.67 1010.63 1010.59 1010.59 1010.63 1010.67 1010.67 1010.67 1010.67 1010.71 1010.83 1010.99 1011.11 1011.19 1011.31 1011.43 1011.51 1011.63 1011.71 1011.79 1011.87
1018.47 1018.35 1018.19 1017.99 1017.83 1017.67 1017.51 1017.43 1017.31 1017.23 1017.11 1016.99 1016.87 1016.71 1016.51 1016.35 1016.15 1015.99 1015.83 1015.63 1015.43 1015.15 1014.95 1014.75 1014.59 1014.43 1014.23 1014.07 1013.91 1013.75 1013.59 1013.43 1013.23 1012.99 1012.79 1012.59 1012.43 1012.27 1012.15 1011.99 1011.83 1011.67 1011.47 1011.27 1010.99 1010.87 1010.71 1010.63 1010.59 1010.55 1010.51 1010.51 1010.55 1010.59 1010.59 1010.59 1010.63 1010.71 1010.79 1010.91 1011.03 1011.15 1011.27 1011.39 1011.47 1011.59 1011.71 1011.75 1011.83
1018.43 1018.27 1018.11 1017.95 1017.75 1017.59 1017.43 1017.35 1017.27 1017.15 1016.99 1016.87 1016.75 1016.59 1016.43 1016.27 1016.07 1015.87 1015.71 1015.51 1015.27 1014.99 1014.75 1014.59 1014.43 1014.27 1014.15 1013.99 1013.83 1013.63 1013.43 1013.31 1013.15 1012.95 1012.71 1012.51 1012.31 1012.19 1012.03 1011.87 1011.71 1011.55 1011.35 1011.15 1010.95 1010.75 1010.59 1010.51 1010.47 1010.43 1010.43 1010.43 1010.47 1010.51 1010.51 1010.51 1010.59 1010.67 1010.75 1010.87 1010.99 1011.15 1011.23 1011.35 1011.47 1011.59 1011.67 1011.71 1011.75
1018.31 1018.15 1017.99 1017.87 1017.71 1017.51 1017.39 1017.31 1017.19 1017.11 1016.99 1016.83 1016.63 1016.43 1016.27 1016.15 1015.99 1015.71 1015.51 1015.31 1015.07 1014.87 1014.63 1014.47 1014.31 1014.19 1014.07 1013.91 1013.71 1013.47 1013.27 1013.15 1012.99 1012.87 1012.63 1012.39 1012.15 1012.03 1011.87 1011.71 1011.55 1011.39 1011.23 1011.03 1010.87 1010.67 1010.51 1010.43 1010.35 1010.27 1010.27 1010.31 1010.39 1010.43 1010.43 1010.43 1010.47 1010.59 1010.71 1010.83 1010.95 1011.11 1011.23 1011.31 1011.43 1011.55 1011.59 1011.63 1011.67
1018.15 1018.03 1017.87 1017.75 1017.59 1017.43 1017.31 1017.23 1017.11 1016.99 1016.91 1016.75 1016.59 1016.39 1016.19 1015.99 1015.83 1015.55 1015.31 1015.11 1014.91 1014.75 1014.59 1014.43 1014.23 1014.11 1013.99 1013.79 1013.59 1013.31 1013.07 1012.87 1012.79 1012.67 1012.47 1012.27 1012.03 1011.87 1011.71 1011.55 1011.39 1011.27 1011.11 1010.95 1010.75 1010.59 1010.43 1010.31 1010.27 1010.19 1010.15 1010.23 1010.27 1010.31 1010.35 1010.35 1010.43 1010.51 1010.63 1010.71 1010.87 1011.03 1011.15 1011.31 1011.39 1011.47 1011.55 1011.59 1011.63
1017.99 1017.87 1017.75 1017.63 1017.51 1017.39 1017.27 1017.15 1016.99 1016.87 1016.75 1016.67 1016.47 1016.27 1016.11 1015.87 1015.59 1015.35 1015.15 1014.99 1014.83 1014.71 1014.55 1014.35 1014.15 1013.99 1013.87 1013.67 1013.43 1013.19 1012.91 1012.71 1012.55 1012.43 1012.27 1012.11 1011.87 1011.71 1011.55 1011.39 1011.27 1011.15 1010.99 1010.83 1010.67 1010.51 1010.31 1010.19 1010.11 1010.03 1010.03 1010.11 1010.15 1010.23 1010.27 1010.27 1010.31 1010.43 1010.55 1010.67 1010.75 1010.87 1011.03 1011.19 1011.35 1011.43 1011.51 1011.55 1011.59
Wind_Speed
7 7 7 7 7 6 6 5 6 6 6 6 6 6 6 6 6 6 6 6 6 6 6 6 6 6 7 8 8 9 9 9 9 10 10 11 9 6 4 2 2 2 2 3 3 3 3 4 4 4 4 4 4 4 3 2 3 3 3 3 3 3 3 3 3 3 3 3 2
8 7 7 8 7 7 6 6 6 6 6 5 6 6 6 6 6 6 6 6 6 6 6 6 6 7 8 9 8 8 8 8 9 9 9 10 9 7 4 2 1 1 2 3 4 4 4 5 5 4 4 4 4 5 4 3 2 3 3 4 3 3 3 3 3 3 3 3 2
8 7 7 7 7 7 6 6 6 7 7 6 6 6 6 6 6 6 6 6 7 7 7 7 7 8 8 9 8 7 7 8 8 8 8 8 8 7 5 2 2 2 2 2 3 3 3 5 5 5 5 4 5 5 4 3 2 2 3 4 3 3 2 2 3 3 2 2 2
7 7 7 7 8 8 7 6 7 8 8 7 6 6 5 5 5 5 6 7 7 7 7 7 8 8 8 8 8 8 8 9 9 8 7 7 8 7 5 2 2 2 2 2 2 2 3 4 4 5 5 5 6 5 4 3 2 2 2 2 2 2 2 2 2 2 2 2 2
8 7 7 7 8 8 7 7 8 8 8 7 6 5 5 5 5 5 6 6 6 7 8 9 8 8 8 9 9 9 9 9 9 8 7 7 6 5 3 1 1 1 1 2 2 2 3 3 4 5 5 5 5 5 4 3 2 1 1 1 1 1 1 1 1 1 1 2 2
7 7 7 7 8 8 7 7 8 8 7 7 6 6 6 5 5 6 6 6 7 8 9 10 10 10 10 11 10 9 9 8 8 7 7 7 6 5 4 2 1 1 1 2 2 2 3 3 3 4 5 5 5 5 5 4 2 2 2 1 1 1 1 1 1 1 1 1 2
7 8 8 8 8 8 8 8 8 8 7 7 7 7 7 7 7 7 7 7 7 7 8 8 9 10 11 11 10 9 9 8 8 8 7 6 6 5 5 4 3 2 2 2 2 2 2 2 3 4 5 5 5 5 5 4 3 3 3 3 2 2 1 1 1 1 1 1 3
7 7 8 8 8 8 8 9 8 8 7 7 7 8 9 9 9 8 8 7 6 7 7 7 9 11 11 12 11 10 9 8 8 8 7 6 5 5 4 4 4 4 3 3 2 2 2 2 3 4 5 5 5 5 5 6 5 4 4 4 3 2 2 1 1 1 1 2 3
7 7 8 8 8 8 8 9 8 8 8 8 8 9 9 10 10 9 8 7 7 7 7 7 9 11 12 12 12 11 9 8 8 8 7 5 4 4 3 3 3 4 4 3 3 3 3 3 3 4 4 4 5 6 6 6 6 6 5 4 4 3 3 2 2 1 1 2 2
8 8 8 8 8 8 8 8 8 8 8 8 9 9 10 11 10 9 8 7 7 7 7 7 9 10 11 11 11 10 10 9 8 8 7 6 4 4 3 3 2 3 3 3 3 4 4 3 3 4 5 5 6 8 8 7 6 6 6 4 4 4 4 3 3 2 1 2 2
8 8 7 7 8 8 8 8 8 8 8 8 9 9 9 10 10 9 9 8 8 7 7 7 8 9 10 10 10 10 10 9 9 8 8 7 5 4 4 3 3 3 3 4 3 3 4 4 4 5 6 6 6 8 9 9 6 5 5 4 4 5 5 4 3 2 2 3 3
8 8 7 7 7 7 7 7 7 7 7 8 8 9 9 8 9 10 10 10 9 8 7 7 8 8 9 9 9 10 10 10 10 9 9 8 6 5 4 4 3 3 3 4 4 3 4 4 5 7 7 7 6 6 8 9 6 4 5 5 5 5 5 4 3 2 2 3 3
8 7 7 7 7 7 7 7 6 6 7 8 8 8 8 8 9 10 10 10 10 9 8 7 7 7 8 8 9 9 10 10 10 10 9 8 7 6 5 4 4 4 4 4 4 4 5 5 6 7 8 8 6 6 7 9 6 4 5 6 6 6 5 5 4 3 2 2 3
8 7 7 7 7 7 7 7 6 6 6 7 7 7 7 8 9 9 10 10 10 9 8 7 7 7 7 9 9 10 10 11 11 11 10 8 7 6 5 5 4 4 4 4 4 5 5 6 7 7 8 8 7 7 7 8 6 4 5 6 6 6 6 6 4 3 3 2 3
8 8 7 7 7 7 7 7 6 6 6 7 7 7 7 7 8 9 9 10 10 10 9 8 7 7 8 9 10 10 11 11 11 11 10 9 8 7 6 6 5 5 4 4 4 5 6 6 7 8 8 8 7 7 7 8 7 5 5 6 6 6 6 6 5 4 3 4 4
8 8 7 7 7 7 7 7 6 5 6 6 6 6 7 7 7 8 9 10 10 9 9 9 8 8 8 9 10 10 10 10 11 11 11 9 8 7 7 6 5 5 5 5 5 5 6 6 7 8 8 8 7 6 6 8 7 5 5 6 5 6 6 6 5 4 4 4 4
8 7 7 7 7 8 8 7 6 6 6 6 6 7 7 7 7 8 9 10 9 9 10 11 9 8 8 8 9 9 10 10 10 11 11 10 9 8 7 7 6 5 5 5 5 6 7 7 7 7 8 7 6 5 5 7 7 5 5 5 5 6 6 6 5 4 4 4 4
8 7 7 7 8 8 9 8 7 7 6 7 7 7 7 8 8 9 9 10 10 11 11 12 10 9 9 8 8 8 9 9 10 10 11 11 11 9 8 7 6 5 4 4 5 6 7 7 7 7 6 6 4 4 5 6 7 5 4 5 6 6 6 6 5 4 4 4 4
7 7 7 7 8 9 9 9 8 7 6 6 6 7 7 8 9 9 9 10 11 12 12 12 11 10 9 9 8 8 9 9 10 11 11 11 11 10 9 7 6 5 5 5 5 6 7 7 7 7 6 5 4 4 4 6 6 5 4 5 6 6 6 6 6 5 4 4 4
7 7 7 8 8 9 9 8 7 6 6 6 7 7 8 8 9 9 10 10 11 12 12 12 11 11 10 9 9 9 9 8 10 10 11 11 11 10 9 8 6 5 5 5 5 6 6 6 7 7 6 5 4 4 4 5 6 5 4 5 6 6 7 6 6 5 5 4 4
7 7 7 8 8 8 8 7 6 6 6 7 7 8 8 8 9 9 10 11 11 12 12 12 11 11 11 10 10 9 9 8 9 10 11 11 11 10 9 8 6 5 5 5 5 6 6 6 6 6 6 5 5 4 4 5 6 5 4 5 6 6 6 6 6 6 5 5 4
6 6 6 8 8 8 8 7 6 6 6 7 8 8 8 8 9 9 10 10 11 11 12 11 11 11 11 10 10 9 9 8 9 10 10 10 10 10 9 7 6 6 5 5 5 5 6 7 7 7 6 5 4 4 4 5 6 5 4 5 6 6 6 6 6 5 5 5 4
6 6 6 7 8 8 8 7 6 6 7 8 8 8 8 8 9 9 9 9 10 11 11 11 11 11 11 10 10 9 9 9 9 10 10 11 11 10 9 7 6 5 5 5 5 5 5 6 7 7 6 5 4 4 4 5 6 5 4 5 6 6 6 6 5 5 5 4 4
6 6 7 7 7 7 7 6 6 7 7 8 8 9 9 9 9 9 9 9 9 10 10 10 10 10 10 10 9 9 9 9 10 10 11 11 11 11 9 7 6 5 5 4 5 5 5 5 6 6 6 5 4 4 4 5 6 4 4 6 6 6 6 5 5 5 5 4 3
7 7 8 8 7 7 6 6 7 7 8 8 8 9 9 9 9 9 9 9 10 10 10 11 11 10 10 9 9 9 9 9 9 10 11 11 12 11 10 8 6 4 4 4 7 9 9 8 7 6 5 4 4 4 4 5 6 5 4 6 6 6 6 5 5 5 4 4 3
7 7 8 7 7 6 6 7 7 8 8 8 9 9 9 9 9 9 10 10 10 10 10 10 10 10 10 9 9 9 9 8 9 9 10 11 11 11 10 8 6 5 4 6 9 11 11 11 10 9 6 4 4 4 4 4 5 4 5 6 7 7 6 6 5 4 4 3 3
7 7 7 7 7 7 7 8 8 8 8 8 9 10 10 10 9 9 10 10 10 10 10 10 10 10 10 9 9 10 10 9 9 9 9 10 11 11 11 9 7 5 5 8 10 11 11 11 12 11 9 5 4 4 4 4 4 4 5 6 7 7 7 7 6 5 4 3 2
6 7 7 7 7 8 8 8 9 9 9 9 9 10 10 10 10 10 10 10 10 10 9 9 9 9 8 8 9 10 10 10 9 9 9 9 10 11 10 9 7 7 8 10 11 11 11 11 12 12 11 7 5 4 4 4 4 4 4 5 6 7 7 6 6 5 4 3 2
7 8 8 8 9 9 9 9 9 9 9 9 10 10 11 11 10 10 10 10 10 9 8 8 8 8 8 8 10 10 11 10 9 8 8 9 10 10 10 10 9 9 10 12 12 12 11 11 12 12 12 10 6 4 4 4 3 3 4 4 5 6 6 6 5 5 4 3 3
8 9 10 10 10 10 10 9 9 9 9 9 10 10 11 11 10 10 10 10 9 9 8 8 8 9 10 10 10 10 10 10 9 9 8 9 10 10 10 10 9 9 10 13 13 12 11 11 12 12 12 11 7 5 4 4 3 3 3 4 5 6 6 6 6 6 5 4 3
8 9 11 12 11 11 10 9 9 9 9 9 10 10 11 11 10 10 9 8 8 9 9 9 10 11 11 11 10 10 10 10 10 9 9 9 9 10 10 11 11 11 12 13 13 12 11 11 12 13 13 12 8 5 3 4 4 4 3 4 5 6 6 6 6 6 6 5 4
9 10 11 12 13 12 11 9 9 9 9 9 10 11 11 11 10 9 8 8 8 9 9 9 10 11 11 11 11 11 11 11 10 9 9 9 9 10 11 11 11 11 12 13 13 12 11 11 12 13 13 13 8 5 4 5 5 4 4 5 6 6 6 5 6 7 7 6 5
10 10 11 13 14 14 12 10 9 9 9 10 11 11 11 11 10 9 9 8 8 8 9 9 10 11 11 12 11 11 11 11 11 10 10 10 10 10 11 11 10 11 12 13 13 12 11 11 11 12 13 13 9 5 3 4 4 4 4 5 6 7 7 6 6 7 7 6 6
9 10 11 13 14 14 13 11 9 9 10 11 11 12 11 11 11 10 9 8 8 8 8 8 9 10 11 11 11 11 11 11 11 11 10 10 10 10 10 10 8 10 12 14 14 13 12 11 11 12 13 13 8 5 3 4 4 4 5 6 6 7 7 7 7 7 7 6 6
10 11 12 14 14 14 13 11 10 10 11 12 12 12 12 11 11 10 10 10 10 9 8 8 8 9 9 10 10 11 12 12 12 12 11 10 10 10 10 10 9 11 14 15 15 14 12 11 11 12 12 11 6 4 3 3 4 5 6 7 7 7 7 7 7 7 7 6 6
11 12 13 14 14 14 13 12 11 11 11 12 13 13 13 12 10 9 10 11 11 9 8 8 8 9 9 10 10 11 12 12 13 13 12 11 11 10 10 10 10 12 14 16 15 14 13 12 11 11 11 8 5 3 3 3 3 5 7 7 7 8 8 7 7 7 6 6 5
11 12 13 14 15 14 13 12 11 11 12 13 13 13 13 12 11 10 10 11 10 10 9 9 9 10 10 10 11 11 11 12 12 13 13 13 11 11 10 10 10 12 13 15 15 14 13 12 12 11 10 7 4 3 3 3 3 5 6 7 7 7 7 7 7 6 6 6 6
12 13 14 14 14 14 13 12 11 12 12 13 13 13 12 12 11 10 10 11 11 10 10 10 10 10 11 11 12 12 12 12 12 13 13 13 12 11 10 11 10 11 12 14 15 14 14 13 12 11 9 5 4 3 3 3 4 5 6 7 7 7 7 6 6 6 6 7 7
13 13 14 13 14 13 13 12 12 12 13 13 13 13 12 11 10 10 10 11 10 10 10 10 11 11 12 13 12 13 13 12 12 13 13 13 12 12 12 11 10 11 12 14 15 15 14 13 12 12 10 6 4 3 3 3 4 5 6 6 6 6 6 5 5 5 6 7 10
13 13 13 13 13 13 13 13 12 12 12 12 13 13 12 12 11 11 11 10 10 10 10 10 11 12 12 13 13 13 13 12 12 12 13 13 14 14 14 12 11 11 12 14 15 15 14 13 13 12 11 6 4 3 3 3 4 5 6 6 6 6 6 5 5 5 5 6 9
12 13 13 13 12 12 12 13 13 12 12 12 12 12 12 12 12 12 11 10 10 9 10 10 11 12 12 13 12 12 13 13 12 12 12 13 14 14 13 12 11 11 11 13 14 15 15 13 13 13 11 7 5 3 3 3 4 6 6 6 6 6 6 5 5 4 4 5 6
Wind_Direction
335 335 334 333 334 333 329 325 325 326 328 326 324 322 320 319 319 320 323 325 325 323 320 315 310 306 303 302 302 302 302 302 304 305 305 305 305 306 308 299 295 309 329 344 345 341 334 330 325 319 313 309 302 294 280 246 231 221 207 185 172 165 162 161 158 158 159 157 155
332 331 331 332 333 331 327 323 324 324 324 321 320 319 319 320 320 322 324 326 324 322 319 315 311 307 304 302 301 300 300 300 301 302 302 302 300 300 298 290 292 320 343 348 346 342 338 335 330 321 313 307 301 296 288 269 229 211 203 189 174 165 161 160 161 162 161 157 148
329 330 330 331 331 330 328 325 323 321 319 317 315 315 316 319 321 323 324 324 321 319 318 318 315 311 307 304 302 301 300 300 299 298 298 297 297 295 294 304 328 345 351 348 344 342 338 335 324 313 304 301 298 294 290 289 265 233 208 191 175 164 160 161 162 162 160 151 144
328 329 328 328 327 326 324 322 321 320 318 316 312 311 312 315 317 320 321 321 320 320 321 321 318 315 312 309 307 305 303 303 301 298 294 293 294 293 295 319 342 347 344 338 337 336 331 324 310 300 295 293 292 289 284 274 264 246 216 187 162 150 149 154 159 159 154 149 151
327 326 325 323 323 321 320 319 319 318 317 314 312 310 311 313 315 318 321 324 324 324 323 321 321 320 319 317 313 309 307 305 305 303 298 298 295 294 296 311 340 341 329 325 326 323 318 311 298 291 289 289 288 284 277 261 248 218 141 106 102 109 119 133 141 143 146 158 157
324 322 321 320 320 319 319 319 318 316 314 312 310 309 310 312 315 319 322 324 322 321 322 323 324 324 323 321 317 314 312 311 311 309 307 305 301 299 295 292 286 285 293 303 310 311 308 305 295 290 289 288 284 277 266 245 221 180 145 132 117 107 107 124 127 132 166 183 162
319 319 320 320 320 320 320 320 319 317 315 313 312 312 311 311 312 315 317 319 320 323 326 328 327 326 324 322 319 317 315 315 313 313 312 310 308 306 305 307 305 297 284 276 284 292 296 298 294 290 289 289 287 276 258 232 207 180 161 160 160 156 151 158 150 156 190 213 177
317 318 318 318 318 319 319 320 320 319 318 317 316 315 314 313 313 314 315 317 321 325 327 328 325 324 322 321 319 317 316 315 314 314 313 310 309 309 310 312 310 304 297 290 289 291 292 294 289 287 286 288 289 280 259 226 205 187 175 172 169 163 155 158 159 166 193 221 187
320 319 318 318 319 319 320 320 320 319 318 316 316 317 318 320 319 318 316 315 318 321 324 325 323 322 321 320 318 317 316 315 314 312 308 305 301 298 296 299 304 306 306 307 307 304 299 293 285 282 282 285 290 288 274 237 209 195 186 179 171 165 160 161 159 159 187 228 190
318 318 318 319 319 319 320 321 320 319 317 316 317 319 321 325 324 321 316 312 313 315 319 322 323 322 321 319 318 317 316 315 313 308 303 293 284 278 273 274 285 297 306 311 311 307 302 294 284 280 280 282 289 292 287 267 226 203 191 181 170 166 164 163 155 154 178 225 195
314 314 315 316 317 318 320 321 321 321 320 319 319 321 322 324 323 320 316 312 311 312 315 319 322 322 320 318 317 317 316 314 312 308 302 291 279 268 261 260 269 286 300 305 305 303 298 291 284 281 280 281 286 290 290 283 251 213 188 169 164 163 162 160 151 156 191 227 202
311 311 312 313 315 318 320 322 321 321 320 319 320 320 321 321 320 319 318 315 313 311 311 316 320 320 319 317 316 315 314 313 310 307 302 294 282 272 266 265 271 283 293 298 297 295 291 286 282 280 279 279 281 285 287 286 265 223 180 160 158 157 157 157 157 170 209 234 207
309 310 311 313 316 319 321 321 320 319 318 318 319 320 320 320 320 321 320 319 316 313 311 313 316 317 317 316 315 314 313 311 309 306 301 294 284 276 270 271 275 280 285 288 288 286 284 281 279 277 277 276 277 280 284 285 269 227 179 165 161 158 156 159 165 177 202 220 198
308 309 310 313 317 320 322 321 319 317 315 316 316 318 319 319 321 322 322 320 317 314 312 310 312 315 316 316 314 313 312 310 308 305 300 292 282 272 265 263 263 266 269 274 275 275 274 274 274 273 273 272 273 278 284 287 274 233 190 178 168 161 157 159 166 173 180 185 184
308 308 310 313 318 321 322 322 318 315 313 313 314 316 318 319 320 322 322 320 317 315 313 311 310 311 313 315 314 313 312 310 309 306 301 293 281 268 258 255 254 255 258 263 267 267 266 264 266 267 266 266 268 276 287 292 280 249 206 188 176 165 159 158 163 168 171 172 179
308 308 310 314 318 321 321 321 317 315 313 312 313 316 318 319 320 321 321 320 318 316 314 311 310 310 311 314 315 314 313 311 310 308 305 297 285 272 260 252 251 252 257 263 269 270 267 262 260 259 259 259 262 272 285 292 284 258 215 192 177 166 159 156 160 165 171 174 179
306 307 309 313 317 318 319 318 316 315 314 312 314 315 318 320 320 320 320 320 318 316 314 313 311 309 309 311 315 315 314 312 311 310 307 303 296 285 272 259 255 255 259 267 274 278 278 273 266 259 255 253 255 264 278 288 284 261 216 187 173 164 159 156 159 163 170 176 180
304 305 307 311 315 316 317 316 315 314 313 313 314 315 317 320 319 318 318 318 317 316 314 313 311 309 308 309 311 313 314 312 310 307 305 303 300 295 285 270 260 256 256 262 269 275 279 279 275 268 260 252 249 256 269 282 283 262 215 181 170 164 161 159 159 160 164 172 175
301 302 305 310 313 314 314 313 313 312 312 312 313 315 316 318 317 317 317 317 316 315 314 313 312 309 307 306 307 310 312 309 307 304 302 300 299 295 288 276 263 254 252 256 263 268 273 276 276 273 266 256 250 253 266 279 282 264 216 180 170 166 165 164 161 158 156 161 162
297 299 303 307 310 311 310 310 308 308 309 312 314 315 315 316 316 316 316 316 316 315 313 312 311 309 307 306 307 309 310 307 305 303 301 298 296 293 287 276 263 254 251 254 262 267 269 270 271 269 264 255 251 255 266 279 281 264 221 181 172 169 168 167 161 155 151 153 152
293 295 300 305 307 307 306 304 304 305 307 311 314 315 315 315 315 315 315 314 314 314 312 311 309 308 307 306 307 308 308 306 305 303 301 299 296 292 286 276 264 255 251 253 261 267 271 272 272 267 261 251 246 249 260 276 277 261 221 181 173 171 169 165 157 151 148 151 153
290 294 300 305 305 304 303 302 302 305 308 312 315 315 315 314 314 313 313 313 313 313 312 310 309 307 306 305 306 306 306 306 305 304 303 302 300 296 289 277 264 255 250 249 254 263 272 278 279 276 268 253 242 241 251 267 271 256 216 177 171 168 166 162 153 149 148 152 159
291 296 301 304 304 303 303 302 303 307 311 315 317 317 315 313 312 312 312 313 313 312 311 310 309 307 306 304 303 304 305 306 307 307 308 308 306 303 296 282 266 255 249 246 247 253 263 274 279 278 274 262 246 240 245 260 265 250 206 172 168 165 162 158 152 148 148 155 168
295 299 303 306 304 304 303 303 307 311 315 318 317 316 315 314 313 313 314 313 312 311 310 310 309 307 306 303 303 303 305 307 309 310 311 311 310 308 303 292 274 259 250 246 248 249 252 257 265 268 267 262 251 242 243 254 257 240 197 170 166 162 158 156 152 149 150 160 175
299 302 304 305 304 303 303 307 312 315 317 317 317 316 315 314 315 315 315 315 313 311 310 309 309 308 307 306 305 305 305 307 308 310 311 311 310 309 306 300 288 273 259 254 260 262 261 256 252 251 250 248 242 237 239 247 250 232 194 171 165 160 156 154 152 151 153 163 178
303 304 305 303 302 304 307 311 314 315 316 316 317 316 316 315 315 315 315 315 314 313 312 311 310 310 311 309 308 308 307 307 307 308 308 309 308 307 305 301 295 287 274 266 270 271 270 263 255 248 241 232 229 229 233 241 242 223 193 173 166 160 156 155 154 155 159 166 185
306 306 305 304 306 308 311 313 315 315 316 316 317 317 316 315 315 315 314 313 313 313 314 314 312 312 312 310 309 309 308 307 306 305 305 305 305 305 304 300 295 288 279 274 276 276 274 268 259 252 244 235 230 229 231 236 233 214 191 176 166 160 157 157 157 159 164 170 192
309 309 308 309 312 313 314 315 315 315 316 316 317 316 316 315 314 313 312 311 312 314 315 314 314 313 312 311 309 308 307 306 305 303 303 303 303 303 302 299 295 288 283 282 281 280 278 273 263 255 249 246 241 234 230 231 225 208 190 176 166 161 159 159 157 160 165 170 192
311 312 314 315 315 315 315 315 314 314 314 315 316 316 315 315 313 311 310 311 313 314 315 314 314 313 311 310 308 307 306 305 304 302 302 303 303 302 301 299 296 291 287 287 285 284 281 277 268 260 254 252 246 232 219 219 215 202 187 176 167 164 162 161 157 159 165 169 185
312 314 316 317 315 314 313 312 311 312 313 315 316 316 315 313 312 311 310 311 312 312 312 311 312 310 308 306 306 306 305 305 303 302 301 302 302 302 302 302 300 296 291 288 286 284 281 278 272 266 261 259 254 238 210 203 204 196 183 172 168 168 166 161 155 156 162 166 179
313 315 317 317 315 313 311 309 310 312 314 316 316 315 314 312 310 309 308 308 308 309 309 310 308 306 305 304 303 303 303 303 302 301 300 300 302 303 304 304 301 297 293 289 285 282 279 276 272 268 265 264 262 245 205 194 198 196 186 173 172 173 171 163 156 157 163 166 174
315 317 317 316 314 312 310 309 311 313 315 316 315 314 312 310 307 306 305 305 306 308 309 309 307 306 304 304 302 302 301 301 301 301 301 302 303 304 303 302 299 295 291 288 283 279 276 272 269 267 266 265 266 252 209 191 194 196 191 180 176 176 176 169 160 161 165 168 173
317 318 317 315 313 311 310 310 312 314 315 315 314 313 311 309 307 305 305 305 306 306 306 306 305 304 303 303 303 302 302 302 302 302 303 303 302 301 300 299 296 294 292 289 285 279 274 270 267 265 264 263 264 255 220 196 192 190 186 179 177 176 174 167 161 162 167 172 174
318 317 315 313 312 311 310 310 312 314 315 314 313 311 310 308 307 307 306 306 304 303 302 301 300 298 298 299 300 301 303 304 305 306 305 302 300 298 297 296 294 294 294 292 288 283 276 270 265 262 261 260 260 255 235 212 192 179 173 171 172 172 170 164 160 162 168 176 175
318 316 314 312 311 310 310 310 312 314 314 313 312 311 309 308 306 305 304 304 303 301 298 295 293 292 293 295 298 301 304 307 307 306 304 301 298 295 294 293 291 292 293 293 289 284 278 271 264 260 257 256 256 252 242 223 190 172 165 165 166 166 164 160 159 162 169 178 175
317 315 313 311 310 309 309 310 312 313 313 312 311 310 309 307 305 303 302 302 301 298 294 292 291 293 295 299 302 304 305 306 305 304 302 300 297 295 293 291 290 291 292 292 289 285 279 272 265 258 253 251 248 243 236 219 183 167 163 162 164 163 161 158 159 164 171 179 175
315 313 311 310 308 308 309 310 311 311 311 310 309 308 308 306 304 302 301 301 298 295 293 293 295 298 301 304 305 304 303 301 301 301 300 299 297 295 292 290 289 289 290 290 289 285 280 273 265 256 250 245 239 234 229 212 180 166 163 163 163 163 161 159 161 166 172 177 174
313 311 310 308 307 307 307 309 310 310 309 308 307 306 305 304 302 300 298 297 295 294 295 297 300 302 304 306 303 301 299 297 297 297 297 297 295 293 290 289 287 286 287 288 287 284 279 273 265 255 246 238 232 229 224 206 180 169 166 166 165 165 164 161 164 169 174 174 173
311 309 307 306 305 305 307 308 308 308 307 306 305 304 303 302 299 297 295 295 294 295 297 300 302 303 303 304 301 299 297 295 294 294 294 294 292 291 289 287 285 285 285 286 285 282 277 271 264 254 245 235 229 226 220 202 179 171 169 168 167 166 166 164 166 170 174 174 174
308 306 305 304 304 305 306 307 306 305 304 304 303 302 301 299 296 295 294 294 295 297 298 299 300 300 301 301 299 297 296 294 292 291 291 291 290 289 288 286 284 283 283 284 283 280 276 269 262 252 243 234 226 221 215 198 178 173 171 171 168 166 166 165 165 169 172 173 176
305 304 303 303 304 305 306 305 304 303 301 300 299 298 297 296 295 295 296 297 298 299 299 298 297 297 297 297 296 295 294 294 292 290 289 289 288 288 287 284 282 280 279 280 280 278 275 268 260 250 240 230 221 213 206 192 179 175 173 171 167 164 163 161 163 166 169 170 176